Location: Wanzleben
(52.0609°N, 11.4408°E)
Time: 01:12:10
(UTC+00:00)

COSMOS 2406 - Pass Details

Date: 25 January 2021
Orbit: 841 x 865 km, 71.0° (Epoch: 05 March)

Event Time Altitude Azimuth Distance (km) Brightness Sun altitude
Rises 18:10:13 0° 327° (NNW) 3,460 6.8 -21.3°
Reaches altitude 10° 18:12:43 10° 325° (NW) 2,518 6.1 -21.7°
Maximum altitude 18:18:26 64° 245° (WSW) 954 3.6 -22.6°
Drops below altitude 10° 18:24:06 10° 165° (SSE) 2,494 5.5 -23.5°
Enters shadow 18:25:46 - 163° (SSE) 3,124 6.0 -23.7°
